{"data":{"norad_id":59027,"intl_designator":"2024-038E","name":"STARLINK-30863","alt_names":[],"object_type":"PAYLOAD","status":"ACTIVE","operator":null,"country":"US","launch_date":"2024-02-25","launch_site_code":"AFETR","launch_vehicle":null,"mission":null,"orbit_class":"UNKNOWN","rcs_meters":null,"size_class":null,"mass_kg":null,"dimensions":null,"purposes":["comms"],"wikipedia_slug":null,"has_3d_model":false,"image_url":null,"decayed_at":null,"tle_current":{"epoch":"2026-09-20T08:24:15.707520Z","epoch_age_seconds":168694,"freshness":"FRESH","line1":"1 59027U 24038E   26263.35018180 -.00000700  00000+0 -15911-4 0  9994","line2":"2 59027  43.0038   8.1216 0001109 259.1247 100.9480 15.27576517144414","mean_motion":15.27576517,"eccentricity":0.0001109,"inclination_deg":43.0038,"raan_deg":8.1216,"arg_perigee_deg":259.1247,"mean_anomaly_deg":100.948,"bstar":-1.5911e-5,"rev_number":14441,"period_min":94.266963649586,"perigee_km":482.2986187198,"apogee_km":483.82043210914,"semimajor_km":6861.1965254145,"source":"CELESTRAK","updated_at":"2026-09-21T09:00:34.028591Z"}}}